Lambertville, MI

8:47 AM EDT on September 29, 2016 (GMT -0400)
Toledo Suburban Airport

Weather History for KDUH - August, 2013

Change the Weather History Date:

Tuesday, August 13, 2013

  Actual Average (KTOL) Record (KTOL)
Temperature  
Mean Temperature 62 °F 72 °F  
Max Temperature 68 °F 83 °F 96 °F (1918)
Min Temperature 55 °F 62 °F 45 °F (1961)
Degree Days  
Heating Degree Days 4 0  
Month to date heating degree days 0  
Since 1 June heating degree days 38  
Since 1 July heating degree days 3  
Cooling Degree Days 0 7  
Month to date cooling degree days 100  
Year to date cooling degree days 588  
Since 1 June cooling degree days 535  
Growing Degree Days 12 (Base 50)    
Moisture  
Dew Point 53 °F    
Average Humidity 72    
Maximum Humidity 94    
Minimum Humidity 46    
Precipitation  
Precipitation 0.00 in 0.10 in 1.86 in (1956)
Month to date precipitation 1.37  
Year to date precipitation 21.54  
Snow  
Snow 0.00 in 0.00 in - ()
Month to date snowfall 0.0  
Since 1 June snowfall 0.0  
Since 1 July snowfall 0.0  
Snow Depth -    
Sea Level Pressure  
Sea Level Pressure 29.96 in    
Wind  
Wind Speed 4 mph (NNW)    
Max Wind Speed 15 mph    
Max Gust Speed 21 mph    
Visibility 9 miles    
Events Rain    
T = Trace of Precipitation, MM = Missing Value Source: NWS Daily Summary

Daily Weather History Graph

Daily Weather History Graph

Search for Another Location

Airport or City:

Trip Planner

Search our weather history database for the weather conditions in past years. The results will help you decide how hot, cold, wet, or windy it might be!

Date:

Astronomy

Aug. 13, 2013 Rise Set
Actual Time 6:41 AM EDT 8:36 PM EDT
Civil Twilight 6:11 AM EDT 9:06 PM EDT
Nautical Twilight 5:34 AM EDT 9:43 PM EDT
Astronomical Twilight 4:54 AM EDT 10:23 PM EDT
Moon 1:41 PM EDT (8/13) No Moon Set
Length of Visible Light 14h 55m
Length of Day
13h 55m
Waxing Crescent, 41% of the Moon is Illuminated
Aug 13
Waxing Crescent
Aug 14
First Quarter
Aug 20
Full
Aug 28
Last Quarter
Sep 5
New

Hourly Weather History & Observations

Time (EDT) Temp. Dew Point Humidity Pressure Visibility Wind Dir Wind Speed Gust Speed Precip Events Conditions
12:15 AM 66.2 °F 62.6 °F 88% 29.87 in 10.0 mi Calm Calm - N/A Rain Light Rain
12:35 AM 66.2 °F 62.6 °F 88% 29.87 in 7.0 mi Calm Calm - N/A   Overcast
12:55 AM 64.4 °F 62.6 °F 94% 29.86 in 5.0 mi Calm Calm - N/A   Scattered Clouds
1:15 AM 64.4 °F 60.8 °F 88% 29.87 in 4.0 mi SSW 3.5 mph - N/A   Clear
1:35 AM 64.4 °F 62.6 °F 94% 29.87 in 5.0 mi Calm Calm - N/A   Mostly Cloudy
1:55 AM 64.4 °F 62.6 °F 94% 29.87 in 5.0 mi Calm Calm - N/A   Overcast
2:15 AM 64.4 °F 62.6 °F 94% 29.86 in 10.0 mi Calm Calm - N/A   Scattered Clouds
2:35 AM 64.4 °F 60.8 °F 88% 29.85 in 5.0 mi Calm Calm - N/A   Clear
2:55 AM 64.4 °F 60.8 °F 88% 29.85 in 7.0 mi WNW 3.5 mph - N/A   Clear
3:15 AM 64.4 °F 60.8 °F 88% 29.85 in 5.0 mi West 3.5 mph - N/A   Clear
3:35 AM 62.6 °F 60.8 °F 94% 29.85 in 4.0 mi Calm Calm - N/A   Clear
3:55 AM 62.6 °F 60.8 °F 94% 29.85 in 4.0 mi Calm Calm - N/A   Clear
4:15 AM 62.6 °F 60.8 °F 94% 29.85 in 5.0 mi WNW 3.5 mph - N/A   Clear
4:35 AM 62.6 °F 60.8 °F 94% 29.86 in 7.0 mi Calm Calm - N/A   Clear
4:55 AM 62.6 °F 59.0 °F 88% 29.87 in 7.0 mi NW 4.6 mph - N/A   Clear
5:15 AM 62.6 °F 59.0 °F 88% 29.87 in 10.0 mi NW 5.8 mph - N/A   Clear
5:35 AM 60.8 °F 59.0 °F 94% 29.88 in 10.0 mi NNW 5.8 mph - N/A   Clear
5:55 AM 60.8 °F 57.2 °F 88% 29.88 in 10.0 mi NW 3.5 mph - N/A   Clear
6:15 AM 60.8 °F 57.2 °F 88% 29.89 in 10.0 mi NNW 4.6 mph - N/A   Clear
6:35 AM 59.0 °F 55.4 °F 88% 29.90 in 10.0 mi NW 5.8 mph - N/A   Clear
6:55 AM 59.0 °F 55.4 °F 88% 29.91 in 10.0 mi NNW 5.8 mph - N/A   Clear
7:15 AM 59.0 °F 55.4 °F 88% 29.92 in 10.0 mi NNW 8.1 mph - N/A   Scattered Clouds
7:35 AM 59.0 °F 55.4 °F 88% 29.92 in 10.0 mi NNW 9.2 mph - N/A   Overcast
7:55 AM 59.0 °F 55.4 °F 88% 29.93 in 10.0 mi NNW 5.8 mph - N/A   Overcast
8:15 AM 59.0 °F 55.4 °F 88% 29.93 in 10.0 mi NNW 6.9 mph - N/A   Overcast
8:35 AM 59.0 °F 55.4 °F 88% 29.94 in 10.0 mi NW 6.9 mph - N/A   Overcast
8:55 AM 59.0 °F 53.6 °F 82% 29.95 in 10.0 mi NW 4.6 mph - N/A   Overcast
9:15 AM 59.0 °F 53.6 °F 82% 29.96 in 10.0 mi North 10.4 mph 17.3 mph N/A   Overcast
9:35 AM 59.0 °F 53.6 °F 82% 29.97 in 10.0 mi North 6.9 mph - N/A   Overcast
9:55 AM 59.0 °F 53.6 °F 82% 29.97 in 10.0 mi NNW 9.2 mph - N/A   Mostly Cloudy
10:15 AM 59.0 °F 53.6 °F 82% 29.97 in 10.0 mi NNW 9.2 mph - N/A   Overcast
10:35 AM 60.8 °F 53.6 °F 77% 29.98 in 10.0 mi NNW 10.4 mph - N/A   Overcast
10:55 AM 59.0 °F 51.8 °F 77% 29.98 in 10.0 mi NNW 9.2 mph 16.1 mph N/A   Mostly Cloudy
11:15 AM 62.6 °F 51.8 °F 68% 29.99 in 10.0 mi NNW 9.2 mph - N/A   Mostly Cloudy
11:35 AM 60.8 °F 51.8 °F 72% 30.00 in 10.0 mi NW 9.2 mph - N/A   Overcast
11:55 AM 62.6 °F 51.8 °F 68% 29.99 in 10.0 mi NNW 8.1 mph - N/A   Mostly Cloudy
12:15 PM 62.6 °F 51.8 °F 68% 30.00 in 10.0 mi NNW 9.2 mph 16.1 mph N/A   Scattered Clouds
12:35 PM 62.6 °F 50.0 °F 63% 29.99 in 10.0 mi NW 9.2 mph 16.1 mph N/A   Scattered Clouds
12:55 PM 64.4 °F 50.0 °F 59% 30.00 in 10.0 mi NNW 10.4 mph - N/A   Clear
1:15 PM 64.4 °F 50.0 °F 59% 30.00 in 10.0 mi NNW 10.4 mph 18.4 mph N/A   Clear
1:35 PM 64.4 °F 50.0 °F 59% 30.00 in 10.0 mi NNW 10.4 mph 17.3 mph N/A   Clear
1:55 PM 66.2 °F 50.0 °F 56% 30.00 in 10.0 mi North 10.4 mph - N/A   Clear
2:15 PM 68.0 °F 50.0 °F 52% 30.00 in 10.0 mi North 10.4 mph - N/A   Clear
2:35 PM 68.0 °F 50.0 °F 52% 30.00 in 10.0 mi NNW 8.1 mph 17.3 mph N/A   Scattered Clouds
2:55 PM 68.0 °F 50.0 °F 52% 30.00 in 10.0 mi WNW 12.7 mph 16.1 mph N/A   Scattered Clouds
3:15 PM 68.0 °F 48.2 °F 49% 30.00 in 10.0 mi NW 11.5 mph 17.3 mph N/A   Scattered Clouds
3:35 PM 68.0 °F 48.2 °F 49% 30.00 in 10.0 mi North 10.4 mph 17.3 mph N/A   Scattered Clouds
3:55 PM 68.0 °F 46.4 °F 46% 30.00 in 10.0 mi NW 15.0 mph 20.7 mph N/A   Scattered Clouds
4:15 PM 66.2 °F 46.4 °F 49% 30.00 in 10.0 mi North 10.4 mph 20.7 mph N/A   Scattered Clouds
4:35 PM 68.0 °F 46.4 °F 46% 30.01 in 7.0 mi North 8.1 mph - N/A   Mostly Cloudy
4:55 PM 68.0 °F 46.4 °F 46% 30.01 in 10.0 mi North 10.4 mph - N/A   Mostly Cloudy
5:15 PM 68.0 °F 46.4 °F 46% 30.02 in 10.0 mi NW 9.2 mph - N/A   Mostly Cloudy
5:35 PM 64.4 °F 44.6 °F 49% 30.02 in 10.0 mi NNW 9.2 mph 18.4 mph N/A   Mostly Cloudy
5:55 PM 64.4 °F 46.4 °F 52% 30.02 in 10.0 mi NW 8.1 mph - N/A   Mostly Cloudy
6:15 PM 66.2 °F 46.4 °F 49% 30.02 in 10.0 mi NNW 4.6 mph - N/A   Mostly Cloudy
6:35 PM 64.4 °F 44.6 °F 49% 30.02 in 10.0 mi NNW 9.2 mph - N/A   Scattered Clouds
6:55 PM 64.4 °F 44.6 °F 49% 30.02 in 10.0 mi NNW 4.6 mph - N/A   Clear
7:15 PM 64.4 °F 46.4 °F 52% 30.02 in 10.0 mi NW 4.6 mph - N/A   Scattered Clouds
7:35 PM 62.6 °F 46.4 °F 55% 30.02 in 10.0 mi NNW 3.5 mph - N/A   Scattered Clouds
7:55 PM 60.8 °F 46.4 °F 59% 30.02 in 10.0 mi Calm Calm - N/A   Scattered Clouds
8:15 PM 60.8 °F 48.2 °F 63% 30.02 in 10.0 mi Calm Calm - N/A   Scattered Clouds
8:35 PM 59.0 °F 48.2 °F 67% 30.02 in 10.0 mi Calm Calm - N/A   Clear
8:55 PM 59.0 °F 50.0 °F 72% 30.02 in 7.0 mi Calm Calm - N/A   Mostly Cloudy
9:15 PM 60.8 °F 48.2 °F 63% 30.03 in 10.0 mi NNW 3.5 mph - N/A   Overcast
9:35 PM 60.8 °F 50.0 °F 68% 30.04 in 10.0 mi Calm Calm - N/A   Overcast
9:55 PM 59.0 °F 48.2 °F 67% 30.04 in 10.0 mi Calm Calm - N/A   Mostly Cloudy
10:15 PM 59.0 °F 48.2 °F 67% 30.04 in 7.0 mi Calm Calm - N/A   Scattered Clouds
10:35 PM 57.2 °F 48.2 °F 72% 30.05 in 10.0 mi NW 3.5 mph - N/A   Clear
10:55 PM 55.4 °F 48.2 °F 77% 30.05 in 10.0 mi NNW 3.5 mph - N/A   Clear
11:15 PM 55.4 °F 46.4 °F 72% 30.05 in 10.0 mi North 3.5 mph - N/A   Clear
11:35 PM 55.4 °F 46.4 °F 72% 30.06 in 10.0 mi NNW 3.5 mph - N/A   Clear
11:55 PM 55.4 °F 46.4 °F 72% 30.07 in 10.0 mi North 3.5 mph - N/A   Clear